Location: Gugi
(45.4667°N, 11.1000°E)
Time: 11:38:03
(UTC+00:00)

PSLV R/B - Pass Details

Date: 17 November 2019
Orbit: 569 x 598 km, 98.1° (Epoch: 11 December)

Event Time Altitude Azimuth Distance (km) Brightness Sun altitude
Rises 16:34:34 0° 10° (N) 2,856 7.2 -9.1°
Reaches altitude 10° 16:36:45 10° 8° (N) 1,949 6.4 -9.4°
Maximum altitude 16:40:56 65° 287° (WNW) 663 4.4 -10.1°
Drops below altitude 10° 16:45:05 10° 206° (SSW) 1,928 7.2 -10.8°
Sets 16:47:15 0° 203° (SSW) 2,822 8.0 -11.2°
